| time (UTC) | temp F | wind direction | speed MPH | gust MPH | rain 1hr in | rain 24hr in | rain mn in | humidity % | barometer mb |
| 20260510182124 | 63 | 318 | 3.0 | 13.0 | 0.00 | 0.00 | 0.00 | 66 | 1016.5 |
| 20260510181122 | 63 | 280 | 3.0 | 13.0 | 0.00 | 0.00 | 0.00 | 66 | 1016.5 |
| 20260510180122 | 64 | 266 | 2.0 | 11.0 | 0.00 | 0.00 | 0.00 | 65 | 1016.4 |
| 20260510175143 | 63 | 229 | 1.0 | 6.0 | 0.00 | 0.00 | 0.00 | 67 | 1016.4 |
| 20260510174124 | 62 | 94 | 2.0 | 10.0 | 0.00 | 0.00 | 0.00 | 68 | 1016.3 |
| 20260510173122 | 62 | 126 | 2.0 | 10.0 | 0.00 | 0.00 | 0.00 | 68 | 1016.2 |
| 20260510172124 | 62 | 60 | 4.0 | 13.0 | 0.00 | 0.00 | 0.00 | 68 | 1016.2 |
| 20260510171122 | 62 | 70 | 2.0 | 8.0 | 0.00 | 0.00 | 0.00 | 68 | 1016.1 |
| 20260510170122 | 61 | 79 | 2.0 | 10.0 | 0.00 | 0.00 | 0.00 | 70 | 1016.2 |
| 20260510165122 | 60 | 90 | 2.0 | 6.0 | 0.00 | 0.00 | 0.00 | 71 | 1016.0 |
| 20260510164122 | 60 | 56 | 3.0 | 8.0 | 0.00 | 0.00 | 0.00 | 72 | 1016.2 |
| 20260510163145 | 60 | 45 | 1.0 | 6.0 | 0.00 | 0.00 | 0.00 | 72 | 1016.3 |
| 20260510162122 | 59 | 120 | 1.0 | 6.0 | 0.00 | 0.00 | 0.00 | 73 | 1016.4 |
| 20260510161122 | 59 | 230 | 0.0 | 3.0 | 0.00 | 0.00 | 0.00 | 74 | 1016.3 |
| 20260510160143 | 58 | 118 | 2.0 | 13.0 | 0.00 | 0.00 | 0.00 | 75 | 1016.2 |
| 20260510155122 | 57 | 123 | 2.0 | 10.0 | 0.00 | 0.00 | 0.00 | 77 | 1016.2 |
| 20260510154122 | 57 | 93 | 2.0 | 11.0 | 0.00 | 0.00 | 0.00 | 78 | 1016.0 |
| 20260510153122 | 56 | 111 | 2.0 | 10.0 | 0.00 | 0.00 | 0.00 | 79 | 1015.9 |
| 20260510152122 | 55 | 125 | 1.0 | 6.0 | 0.00 | 0.00 | 0.00 | 81 | 1016.0 |
| 20260510151122 | 55 | 140 | 3.0 | 16.0 | 0.00 | 0.00 | 0.00 | 80 | 1016.0 |
| 20260510150122 | 54 | 118 | 3.0 | 11.0 | 0.00 | 0.00 | 0.00 | 82 | 1016.1 |
| 20260510145125 | 54 | 122 | 4.0 | 13.0 | 0.00 | 0.00 | 0.00 | 82 | 1016.1 |
| 20260510144122 | 53 | 122 | 3.0 | 8.0 | 0.00 | 0.00 | 0.00 | 82 | 1016.0 |
| 20260510143144 | 53 | 126 | 4.0 | 11.0 | 0.00 | 0.00 | 0.00 | 83 | 1016.0 |
| 20260510142122 | 53 | 121 | 3.0 | 11.0 | 0.00 | 0.00 | 0.00 | 82 | 1015.7 |
| 20260510141124 | 53 | 111 | 2.0 | 6.0 | 0.00 | 0.00 | 0.00 | 82 | 1015.8 |
| 20260510140145 | 54 | 118 | 2.0 | 6.0 | 0.00 | 0.00 | 0.00 | 82 | 1015.8 |
| 20260510135143 | 54 | 132 | 2.0 | 8.0 | 0.00 | 0.00 | 0.00 | 81 | 1015.7 |
| 20260510134143 | 53 | 107 | 0.0 | 5.0 | 0.00 | 0.00 | 0.00 | 83 | 1015.6 |
| 20260510133122 | 53 | 123 | 0.0 | 3.0 | 0.00 | 0.00 | 0.00 | 83 | 1015.5 |
| 20260510132122 | 52 | 125 | 2.0 | 5.0 | 0.00 | 0.00 | 0.00 | 83 | 1015.5 |
| 20260510131122 | 52 | 113 | 1.0 | 5.0 | 0.00 | 0.00 | 0.00 | 84 | 1015.4 |
| 20260510130124 | 52 | 123 | 4.0 | 11.0 | 0.00 | 0.00 | 0.00 | 84 | 1015.4 |
| 20260510125122 | 52 | 123 | 2.0 | 6.0 | 0.00 | 0.00 | 0.00 | 84 | 1015.4 |
| 20260510124123 | 52 | 96 | 1.0 | 3.0 | 0.00 | 0.00 | 0.00 | 83 | 1015.5 |
| 20260510123143 | 53 | 146 | 0.0 | 3.0 | 0.00 | 0.00 | 0.00 | 83 | 1015.5 |
| 20260510122122 | 53 | 128 | 0.0 | 2.0 | 0.00 | 0.00 | 0.00 | 82 | 1015.6 |
| 20260510121122 | 53 | 120 | 1.0 | 5.0 | 0.00 | 0.00 | 0.00 | 82 | 1015.4 |
| 20260510120144 | 52 | 118 | 2.0 | 8.0 | 0.00 | 0.00 | 0.00 | 83 | 1015.4 |
| 20260510115122 | 52 | 129 | 2.0 | 6.0 | 0.00 | 0.00 | 0.00 | 83 | 1015.4 |
| 20260510114124 | 52 | 128 | 4.0 | 11.0 | 0.00 | 0.00 | 0.00 | 83 | 1015.3 |
| 20260510113122 | 53 | 108 | 1.0 | 6.0 | 0.00 | 0.00 | 0.00 | 83 | 1015.5 |
| 20260510112128 | 53 | 123 | 1.0 | 10.0 | 0.00 | 0.00 | 0.00 | 84 | 1015.6 |
| 20260510112123 | 53 | 124 | 1.0 | 10.0 | 0.00 | 0.00 | 0.00 | 84 | 1015.6 |
| 20260510111143 | 53 | 119 | 2.0 | 8.0 | 0.00 | 0.00 | 0.00 | 83 | 1015.4 |
| 20260510110123 | 53 | 118 | 3.0 | 11.0 | 0.00 | 0.00 | 0.00 | 83 | 1015.4 |
| 20260510105122 | 53 | 114 | 3.0 | 14.0 | 0.00 | 0.00 | 0.00 | 82 | 1015.2 |
| 20260510104124 | 54 | 126 | 6.0 | 14.0 | 0.00 | 0.00 | 0.00 | 81 | 1015.1 |
| 20260510103123 | 54 | 126 | 5.0 | 14.0 | 0.00 | 0.00 | 0.00 | 80 | 1015.2 |
| 20260510102124 | 54 | 122 | 2.0 | 13.0 | 0.00 | 0.00 | 0.00 | 78 | 1015.3 |
| 20260510101122 | 55 | 125 | 4.0 | 13.0 | 0.00 | 0.00 | 0.00 | 76 | 1015.3 |
| 20260510100122 | 54 | 127 | 6.0 | 14.0 | 0.00 | 0.00 | 0.00 | 76 | 1015.0 |
| 20260510095145 | 54 | 125 | 2.0 | 6.0 | 0.00 | 0.00 | 0.00 | 79 | 1015.4 |
| 20260510094122 | 54 | 126 | 1.0 | 6.0 | 0.00 | 0.00 | 0.00 | 80 | 1015.3 |
| 20260510093122 | 55 | 0 | 0.0 | 0.0 | 0.00 | 0.00 | 0.00 | 79 | 1015.4 |
| 20260510092124 | 55 | 144 | 0.0 | 5.0 | 0.00 | 0.00 | 0.00 | 78 | 1015.4 |
| 20260510091125 | 55 | 0 | 0.0 | 2.0 | 0.00 | 0.00 | 0.00 | 77 | 1015.3 |
| 20260510090122 | 55 | 0 | 0.0 | 0.0 | 0.00 | 0.00 | 0.00 | 76 | 1015.4 |
| 20260510085143 | 56 | 0 | 0.0 | 0.0 | 0.00 | 0.00 | 0.00 | 75 | 1015.3 |
| 20260510084122 | 56 | 0 | 0.0 | 0.0 | 0.00 | 0.00 | 0.00 | 75 | 1015.2 |
| 20260510083122 | 56 | 0 | 0.0 | 0.0 | 0.00 | 0.00 | 0.00 | 75 | 1015.3 |
| 20260510082122 | 56 | 161 | 0.0 | 3.0 | 0.00 | 0.00 | 0.00 | 74 | 1015.1 |
| 20260510081122 | 56 | 0 | 0.0 | 0.0 | 0.00 | 0.00 | 0.00 | 76 | 1015.1 |
| 20260510080122 | 57 | 0 | 0.0 | 0.0 | 0.00 | 0.00 | 0.00 | 76 | 1015.1 |
| 20260510075122 | 57 | 0 | 0.0 | 0.0 | 0.00 | 0.00 | 0.00 | 75 | 1015.0 |
| 20260510074144 | 57 | 0 | 0.0 | 0.0 | 0.00 | 0.00 | 0.00 | 73 | 1014.9 |
| 20260510073122 | 57 | 0 | 0.0 | 0.0 | 0.00 | 0.00 | 0.00 | 72 | 1014.9 |
| 20260510072123 | 57 | 0 | 0.0 | 0.0 | 0.00 | 0.00 | 0.00 | 73 | 1015.0 |
| 20260510071125 | 58 | 0 | 0.0 | 0.0 | 0.00 | 0.00 | 0.00 | 73 | 1015.0 |
| 20260510070122 | 58 | 0 | 0.0 | 0.0 | 0.00 | 0.00 | 0.00 | 74 | 1015.0 |
| 20260510065124 | 58 | 0 | 0.0 | 0.0 | 0.00 | 0.00 | 0.00 | 73 | 1015.0 |
| 20260510064124 | 58 | 263 | 0.0 | 2.0 | 0.00 | 0.00 | 0.00 | 71 | 1014.9 |
| 20260510063123 | 58 | 207 | 0.0 | 3.0 | 0.00 | 0.00 | 0.00 | 71 | 1015.0 |
| 20260510062122 | 59 | 148 | 0.0 | 2.0 | 0.00 | 0.00 | 0.00 | 70 | 1014.9 |
| 20260510061122 | 59 | 141 | 0.0 | 3.0 | 0.00 | 0.00 | 0.00 | 69 | 1015.0 |
| 20260510060145 | 59 | 260 | 0.0 | 3.0 | 0.00 | 0.00 | 0.00 | 69 | 1014.9 |
| 20260510055122 | 59 | 0 | 0.0 | 0.0 | 0.00 | 0.00 | 0.00 | 68 | 1014.9 |
| 20260510054122 | 60 | 0 | 0.0 | 0.0 | 0.00 | 0.00 | 0.00 | 68 | 1014.8 |
| 20260510053124 | 60 | 260 | 0.0 | 2.0 | 0.00 | 0.00 | 0.00 | 67 | 1014.9 |
| 20260510052122 | 60 | 264 | 0.0 | 2.0 | 0.00 | 0.00 | 0.00 | 66 | 1015.0 |
| 20260510051122 | 61 | 0 | 0.0 | 2.0 | 0.00 | 0.00 | 0.00 | 66 | 1015.2 |
| 20260510050122 | 61 | 263 | 0.0 | 2.0 | 0.00 | 0.00 | 0.00 | 65 | 1015.2 |
| 20260510045143 | 61 | 257 | 0.0 | 3.0 | 0.00 | 0.00 | 0.00 | 65 | 1015.2 |
| 20260510044124 | 62 | 255 | 0.0 | 5.0 | 0.00 | 0.00 | 0.00 | 64 | 1015.2 |
| 20260510043122 | 62 | 269 | 0.0 | 2.0 | 0.00 | 0.00 | 0.00 | 64 | 1015.2 |
| 20260510042122 | 62 | 265 | 0.0 | 3.0 | 0.00 | 0.00 | 0.00 | 63 | 1015.2 |
| 20260510041122 | 63 | 0 | 0.0 | 2.0 | 0.00 | 0.00 | 0.00 | 62 | 1015.2 |
| 20260510040122 | 63 | 0 | 0.0 | 2.0 | 0.00 | 0.00 | 0.00 | 61 | 1015.0 |
| 20260510035122 | 63 | 264 | 0.0 | 3.0 | 0.00 | 0.00 | 0.00 | 60 | 1015.0 |
| 20260510034122 | 64 | 261 | 1.0 | 5.0 | 0.00 | 0.00 | 0.00 | 59 | 1015.0 |
| 20260510033122 | 64 | 253 | 1.0 | 5.0 | 0.00 | 0.00 | 0.00 | 58 | 1015.0 |
| 20260510032122 | 65 | 256 | 1.0 | 10.0 | 0.00 | 0.00 | 0.00 | 57 | 1014.9 |
| 20260510031122 | 65 | 255 | 1.0 | 6.0 | 0.00 | 0.00 | 0.00 | 56 | 1015.0 |
| 20260510030124 | 66 | 251 | 2.0 | 10.0 | 0.00 | 0.00 | 0.00 | 55 | 1015.0 |
| 20260510025144 | 67 | 256 | 2.0 | 10.0 | 0.00 | 0.00 | 0.00 | 54 | 1015.1 |
| 20260510024122 | 67 | 287 | 2.0 | 10.0 | 0.00 | 0.00 | 0.00 | 51 | 1015.1 |
| 20260510023124 | 68 | 287 | 1.0 | 5.0 | 0.00 | 0.00 | 0.00 | 50 | 1015.2 |
| 20260510022122 | 68 | 291 | 2.0 | 6.0 | 0.00 | 0.00 | 0.00 | 48 | 1015.3 |
| 20260510021123 | 69 | 299 | 1.0 | 5.0 | 0.00 | 0.00 | 0.00 | 47 | 1015.4 |
| 20260510020123 | 69 | 294 | 1.0 | 6.0 | 0.00 | 0.00 | 0.00 | 47 | 1015.5 |
| 20260510015143 | 69 | 303 | 1.0 | 5.0 | 0.00 | 0.00 | 0.00 | 47 | 1015.5 |
| 20260510014124 | 69 | 349 | 1.0 | 6.0 | 0.00 | 0.00 | 0.00 | 47 | 1015.7 |
| 20260510013122 | 69 | 354 | 1.0 | 3.0 | 0.00 | 0.00 | 0.00 | 48 | 1015.9 |
| 20260510012123 | 69 | 11 | 2.0 | 6.0 | 0.00 | 0.00 | 0.00 | 47 | 1016.0 |
| 20260510011124 | 70 | 357 | 2.0 | 6.0 | 0.00 | 0.00 | 0.00 | 46 | 1016.3 |
| 20260510010123 | 71 | 320 | 1.0 | 5.0 | 0.00 | 0.00 | 0.00 | 46 | 1016.4 |
| 20260510005122 | 70 | 14 | 2.0 | 6.0 | 0.00 | 0.00 | 0.00 | 47 | 1016.5 |
| 20260510004124 | 70 | 20 | 3.0 | 8.0 | 0.00 | 0.00 | 0.00 | 48 | 1016.6 |
| 20260510003122 | 70 | 20 | 2.0 | 8.0 | 0.00 | 0.00 | 0.00 | 48 | 1016.7 |
| 20260510002122 | 71 | 319 | 1.0 | 5.0 | 0.00 | 0.00 | 0.00 | 47 | 1016.7 |
| 20260510001122 | 71 | 354 | 2.0 | 6.0 | 0.00 | 0.00 | 0.00 | 47 | 1017.0 |
| 20260510000122 | 71 | 18 | 2.0 | 6.0 | 0.00 | 0.00 | 0.00 | 46 | 1017.2 |
| 20260509235124 | 71 | 260 | 2.0 | 11.0 | 0.00 | 0.00 | 0.00 | 47 | 1017.3 |
| 20260509234128 | 71 | 272 | 2.0 | 10.0 | 0.00 | 0.00 | 0.00 | 47 | 1017.5 |
| 20260509234124 | 71 | 271 | 2.0 | 10.0 | 0.00 | 0.00 | 0.00 | 47 | 1017.5 |
| 20260509233122 | 71 | 338 | 1.0 | 5.0 | 0.00 | 0.00 | 0.00 | 48 | 1017.5 |
| 20260509232124 | 71 | 300 | 3.0 | 11.0 | 0.00 | 0.00 | 0.00 | 48 | 1017.7 |
| 20260509231124 | 71 | 275 | 1.0 | 10.0 | 0.00 | 0.00 | 0.00 | 49 | 1017.9 |
| 20260509230122 | 71 | 316 | 3.0 | 11.0 | 0.00 | 0.00 | 0.00 | 49 | 1018.0 |
| 20260509225122 | 71 | 309 | 2.0 | 6.0 | 0.00 | 0.00 | 0.00 | 50 | 1018.1 |
| 20260509224124 | 70 | 279 | 2.0 | 11.0 | 0.00 | 0.00 | 0.00 | 49 | 1018.3 |
| 20260509223122 | 70 | 263 | 2.0 | 14.0 | 0.00 | 0.00 | 0.00 | 51 | 1018.6 |
| 20260509222124 | 69 | 277 | 3.0 | 13.0 | 0.00 | 0.00 | 0.00 | 52 | 1018.6 |
| 20260509221149 | 69 | 272 | 3.0 | 16.0 | 0.00 | 0.00 | 0.00 | 51 | 1018.8 |
| 20260509221144 | 69 | 274 | 3.0 | 16.0 | 0.00 | 0.00 | 0.00 | 51 | 1018.8 |
| 20260509220122 | 69 | 274 | 4.0 | 13.0 | 0.00 | 0.00 | 0.00 | 53 | 1019.0 |
| 20260509215122 | 69 | 295 | 3.0 | 13.0 | 0.00 | 0.00 | 0.00 | 52 | 1019.0 |
| 20260509214143 | 69 | 277 | 3.0 | 13.0 | 0.00 | 0.00 | 0.00 | 52 | 1018.9 |
| 20260509213143 | 68 | 266 | 3.0 | 13.0 | 0.00 | 0.00 | 0.00 | 53 | 1019.0 |
| 20260509212122 | 69 | 296 | 3.0 | 14.0 | 0.00 | 0.00 | 0.00 | 53 | 1019.2 |
| 20260509211123 | 69 | 284 | 2.0 | 8.0 | 0.00 | 0.00 | 0.00 | 53 | 1019.2 |
| 20260509210123 | 68 | 321 | 3.0 | 13.0 | 0.00 | 0.00 | 0.00 | 54 | 1019.2 |
| 20260509205145 | 67 | 287 | 2.0 | 10.0 | 0.00 | 0.00 | 0.00 | 54 | 1019.1 |
| 20260509204122 | 68 | 283 | 3.0 | 14.0 | 0.00 | 0.00 | 0.00 | 52 | 1019.3 |
| 20260509203124 | 68 | 305 | 3.0 | 11.0 | 0.00 | 0.00 | 0.00 | 48 | 1019.5 |
| 20260509202124 | 67 | 9 | 3.0 | 10.0 | 0.00 | 0.00 | 0.00 | 48 | 1019.5 |
| 20260509201122 | 67 | 3 | 4.0 | 13.0 | 0.00 | 0.00 | 0.00 | 49 | 1019.7 |
| 20260509200122 | 67 | 11 | 2.0 | 8.0 | 0.00 | 0.00 | 0.00 | 50 | 1019.8 |
| 20260509195124 | 67 | 28 | 2.0 | 11.0 | 0.00 | 0.00 | 0.00 | 50 | 1019.8 |
| 20260509194122 | 67 | 28 | 2.0 | 10.0 | 0.00 | 0.00 | 0.00 | 48 | 1019.8 |
| 20260509193124 | 67 | 32 | 1.0 | 8.0 | 0.00 | 0.00 | 0.00 | 45 | 1020.1 |
| 20260509192122 | 67 | 5 | 1.0 | 5.0 | 0.00 | 0.00 | 0.00 | 46 | 1020.0 |
| 20260509191122 | 66 | 48 | 2.0 | 8.0 | 0.00 | 0.00 | 0.00 | 47 | 1020.4 |
| 20260509190122 | 66 | 124 | 2.0 | 8.0 | 0.00 | 0.00 | 0.00 | 50 | 1020.4 |
| 20260509185124 | 66 | 89 | 2.0 | 6.0 | 0.00 | 0.00 | 0.00 | 52 | 1020.6 |
| 20260509184143 | 66 | 89 | 2.0 | 8.0 | 0.00 | 0.00 | 0.00 | 53 | 1020.6 |
| 20260509183122 | 65 | 50 | 2.0 | 8.0 | 0.00 | 0.00 | 0.00 | 54 | 1020.6 |